Time,TemperatureF,DewpointF,PressureIn,WindDirection,WindDirectionDegrees,WindSpeedMPH,WindSpeedGustMPH,Humidity,HourlyPrecipIn,Conditions,Clouds,dailyrainin,SoftwareType,DateUTC
2013-05-18 00:05:00,48.0,43.1,30.23,South,180,0.0,1.0,83,0.00,,,0.00,Weather View 32 v70,2013-05-18 04:05:00,
2013-05-18 00:09:00,48.0,43.4,30.23,WNW,292,0.0,1.0,84,0.00,,,0.00,Weather View 32 v70,2013-05-18 04:09:00,
2013-05-18 00:14:00,48.0,43.4,30.24,WSW,248,0.0,1.0,84,0.00,,,0.00,Weather View 32 v70,2013-05-18 04:14:00,
2013-05-18 00:19:00,48.0,43.4,30.24,WNW,292,0.0,1.0,84,0.00,,,0.00,Weather View 32 v70,2013-05-18 04:19:00,
2013-05-18 00:24:00,48.0,43.7,30.24,West,270,0.0,1.0,85,0.00,,,0.00,Weather View 32 v70,2013-05-18 04:24:00,
2013-05-18 00:29:00,48.0,44.0,30.24,West,270,0.0,1.0,86,0.00,,,0.00,Weather View 32 v70,2013-05-18 04:29:00,
2013-05-18 00:34:00,48.0,44.0,30.24,WNW,292,0.0,1.0,86,0.00,,,0.00,Weather View 32 v70,2013-05-18 04:34:00,
2013-05-18 00:42:00,48.0,44.0,30.24,West,270,0.0,1.0,86,0.00,,,0.00,Weather View 32 v70,2013-05-18 04:42:00,
2013-05-18 00:49:00,48.0,44.3,30.24,West,270,0.0,1.0,87,0.00,,,0.00,Weather View 32 v70,2013-05-18 04:49:00,
2013-05-18 00:59:00,48.0,44.3,30.24,West,270,0.0,1.0,87,0.00,,,0.00,Weather View 32 v70,2013-05-18 04:59:00,
2013-05-18 01:04:00,48.0,44.6,30.24,West,270,0.0,1.0,88,0.00,,,0.00,Weather View 32 v70,2013-05-18 05:04:00,
2013-05-18 01:14:00,48.0,44.6,30.25,WNW,292,0.0,1.0,88,0.00,,,0.00,Weather View 32 v70,2013-05-18 05:14:00,
2013-05-18 01:24:00,48.0,44.9,30.25,WSW,248,0.0,1.0,89,0.00,,,0.00,Weather View 32 v70,2013-05-18 05:24:00,
2013-05-18 01:34:00,48.0,44.9,30.25,WNW,292,0.0,0.0,89,0.00,,,0.00,Weather View 32 v70,2013-05-18 05:34:00,
2013-05-18 01:42:00,48.0,44.9,30.25,SSE,158,0.0,0.0,89,0.00,,,0.00,Weather View 32 v70,2013-05-18 05:42:00,
2013-05-18 01:49:00,47.0,44.2,30.25,WNW,292,0.0,0.0,90,0.00,,,0.00,Weather View 32 v70,2013-05-18 05:49:00,
2013-05-18 01:55:00,47.0,44.2,30.25,West,270,0.0,0.0,90,0.00,,,0.00,Weather View 32 v70,2013-05-18 05:55:00,
2013-05-18 02:04:00,47.0,44.2,30.25,WNW,292,0.0,0.0,90,0.00,,,0.00,Weather View 32 v70,2013-05-18 06:04:00,
2013-05-18 02:14:00,47.0,44.5,30.25,SSW,202,0.0,0.0,91,0.00,,,0.00,Weather View 32 v70,2013-05-18 06:14:00,
2013-05-18 02:24:00,46.0,43.8,30.25,WNW,292,0.0,0.0,92,0.00,,,0.00,Weather View 32 v70,2013-05-18 06:24:00,
2013-05-18 02:34:00,46.0,44.1,30.25,West,270,0.0,0.0,93,0.00,,,0.00,Weather View 32 v70,2013-05-18 06:34:00,
2013-05-18 02:43:00,46.0,44.1,30.25,WNW,292,0.0,0.0,93,0.00,,,0.00,Weather View 32 v70,2013-05-18 06:43:00,
2013-05-18 02:49:00,46.0,43.8,30.25,WNW,292,0.0,0.0,92,0.00,,,0.00,Weather View 32 v70,2013-05-18 06:49:00,
2013-05-18 02:59:00,46.0,43.8,30.25,WNW,292,0.0,0.0,92,0.00,,,0.00,Weather View 32 v70,2013-05-18 06:59:00,
2013-05-18 03:04:00,46.0,43.8,30.25,SW,225,0.0,0.0,92,0.00,,,0.00,Weather View 32 v70,2013-05-18 07:04:00,
2013-05-18 03:14:00,45.0,43.1,30.25,WNW,292,0.0,0.0,93,0.00,,,0.00,Weather View 32 v70,2013-05-18 07:14:00,
2013-05-18 03:24:00,45.0,43.4,30.25,WSW,248,0.0,0.0,94,0.00,,,0.00,Weather View 32 v70,2013-05-18 07:24:00,
2013-05-18 03:34:00,44.0,42.9,30.25,WNW,292,0.0,0.0,96,0.00,,,0.00,Weather View 32 v70,2013-05-18 07:34:00,
2013-05-18 03:43:00,44.0,42.9,30.25,West,270,0.0,0.0,96,0.00,,,0.00,Weather View 32 v70,2013-05-18 07:43:00,
2013-05-18 03:49:00,44.0,43.2,30.25,West,270,0.0,0.0,97,0.00,,,0.00,Weather View 32 v70,2013-05-18 07:49:00,
2013-05-18 03:59:00,44.0,43.5,30.26,WNW,292,0.0,0.0,98,0.00,,,0.00,Weather View 32 v70,2013-05-18 07:59:00,
2013-05-18 04:09:00,44.0,43.7,30.26,West,270,0.0,0.0,99,0.00,,,0.00,Weather View 32 v70,2013-05-18 08:09:00,
2013-05-18 04:19:00,43.0,42.7,30.26,WSW,248,0.0,0.0,99,0.00,,,0.00,Weather View 32 v70,2013-05-18 08:19:00,
2013-05-18 04:29:00,43.0,42.7,30.26,WNW,292,0.0,0.0,99,0.00,,,0.00,Weather View 32 v70,2013-05-18 08:29:00,
2013-05-18 04:35:00,43.0,43.0,30.26,WNW,292,0.0,0.0,100,0.00,,,0.00,Weather View 32 v70,2013-05-18 08:35:00,
2013-05-18 04:39:00,43.0,43.0,30.26,West,270,0.0,0.0,100,0.00,,,0.00,Weather View 32 v70,2013-05-18 08:39:00,
2013-05-18 04:49:00,43.0,43.0,30.27,WNW,292,0.0,0.0,100,0.00,,,0.00,Weather View 32 v70,2013-05-18 08:49:00,
2013-05-18 04:59:00,42.0,42.0,30.27,WNW,292,0.0,0.0,100,0.00,,,0.00,Weather View 32 v70,2013-05-18 08:59:00,
2013-05-18 05:09:00,42.0,42.0,30.27,WNW,292,0.0,0.0,100,0.00,,,0.00,Weather View 32 v70,2013-05-18 09:09:00,
2013-05-18 05:15:00,42.0,42.0,30.27,West,270,0.0,0.0,100,0.00,,,0.00,Weather View 32 v70,2013-05-18 09:15:00,
2013-05-18 05:19:00,42.0,42.0,30.27,West,270,0.0,0.0,100,0.00,,,0.00,Weather View 32 v70,2013-05-18 09:19:00,
2013-05-18 05:29:00,42.0,42.0,30.28,West,270,0.0,0.0,100,0.00,,,0.00,Weather View 32 v70,2013-05-18 09:29:00,
2013-05-18 05:39:00,42.0,42.0,30.28,WNW,292,0.0,0.0,100,0.00,,,0.00,Weather View 32 v70,2013-05-18 09:39:00,
2013-05-18 05:45:00,42.0,42.0,30.28,WNW,292,0.0,0.0,100,0.00,,,0.00,Weather View 32 v70,2013-05-18 09:45:00,
2013-05-18 05:55:00,42.0,42.0,30.28,WNW,292,0.0,0.0,100,0.00,,,0.00,Weather View 32 v70,2013-05-18 09:55:00,
2013-05-18 06:04:00,42.0,42.0,30.28,West,270,0.0,0.0,100,0.00,,,0.00,Weather View 32 v70,2013-05-18 10:04:00,
2013-05-18 06:09:00,42.0,42.0,30.29,West,270,0.0,0.0,100,0.00,,,0.00,Weather View 32 v70,2013-05-18 10:09:00,
2013-05-18 06:19:00,43.0,43.0,30.29,SSW,202,0.0,0.0,100,0.00,,,0.00,Weather View 32 v70,2013-05-18 10:19:00,
2013-05-18 06:24:00,43.0,43.0,30.29,SE,135,0.0,1.0,100,0.00,,,0.00,Weather View 32 v70,2013-05-18 10:24:00,
2013-05-18 06:29:00,43.0,43.0,30.29,South,180,0.0,1.0,100,0.00,,,0.00,Weather View 32 v70,2013-05-18 10:29:00,
2013-05-18 06:39:00,44.0,44.0,30.30,SW,225,0.0,1.0,100,0.00,,,0.00,Weather View 32 v70,2013-05-18 10:39:00,
2013-05-18 06:45:00,44.0,44.0,30.30,SW,225,0.0,1.0,100,0.00,,,0.00,Weather View 32 v70,2013-05-18 10:45:00,
2013-05-18 06:54:00,44.0,44.0,30.30,SE,135,0.0,1.0,100,0.00,,,0.00,Weather View 32 v70,2013-05-18 10:54:00,
2013-05-18 07:04:00,45.0,45.0,30.30,SW,225,0.0,1.0,100,0.00,,,0.00,Weather View 32 v70,2013-05-18 11:04:00,
2013-05-18 07:14:00,45.0,45.0,30.30,SE,135,0.0,2.0,100,0.00,,,0.00,Weather View 32 v70,2013-05-18 11:14:00,
2013-05-18 07:25:00,46.0,46.0,30.30,SW,225,0.0,2.0,100,0.00,,,0.00,Weather View 32 v70,2013-05-18 11:25:00,
2013-05-18 07:34:00,47.0,47.0,30.31,SW,225,0.0,2.0,100,0.00,,,0.00,Weather View 32 v70,2013-05-18 11:34:00,
2013-05-18 07:39:00,48.0,48.0,30.31,SSW,202,0.0,2.0,100,0.00,,,0.00,Weather View 32 v70,2013-05-18 11:39:00,
2013-05-18 07:46:00,49.0,49.0,30.31,SW,225,0.0,2.0,100,0.00,,,0.00,Weather View 32 v70,2013-05-18 11:46:00,
2013-05-18 07:54:00,51.0,48.5,30.31,SSE,158,1.0,4.0,91,0.00,,,0.00,Weather View 32 v70,2013-05-18 11:54:00,
2013-05-18 07:59:00,51.0,47.6,30.31,SSE,158,2.0,4.0,88,0.00,,,0.00,Weather View 32 v70,2013-05-18 11:59:00,
2013-05-18 08:05:00,52.0,48.9,30.31,SSE,158,1.0,4.0,89,0.00,,,0.00,Weather View 32 v70,2013-05-18 12:05:00,
2013-05-18 08:14:00,52.0,47.6,30.32,SE,135,1.0,4.0,85,0.00,,,0.00,Weather View 32 v70,2013-05-18 12:14:00,
2013-05-18 08:24:00,53.0,48.9,30.31,South,180,3.0,4.0,86,0.00,,,0.00,Weather View 32 v70,2013-05-18 12:24:00,
2013-05-18 08:30:00,53.0,49.2,30.32,SE,135,1.0,4.0,87,0.00,,,0.00,Weather View 32 v70,2013-05-18 12:30:00,
2013-05-18 08:34:00,53.0,49.2,30.32,SW,225,2.0,4.0,87,0.00,,,0.00,Weather View 32 v70,2013-05-18 12:34:00,
2013-05-18 08:44:00,54.0,48.6,30.32,SSE,158,1.0,4.0,82,0.00,,,0.00,Weather View 32 v70,2013-05-18 12:44:00,
2013-05-18 08:49:00,54.0,48.3,30.32,SSE,158,1.0,4.0,81,0.00,,,0.00,Weather View 32 v70,2013-05-18 12:49:00,
2013-05-18 08:59:00,55.0,48.6,30.32,SSE,158,3.0,4.0,79,0.00,,,0.00,Weather View 32 v70,2013-05-18 12:59:00,
2013-05-18 09:10:00,55.0,48.3,30.32,SSE,158,3.0,4.0,78,0.00,,,0.00,Weather View 32 v70,2013-05-18 13:10:00,
2013-05-18 09:19:00,56.0,48.2,30.32,SE,135,3.0,5.0,75,0.00,,,0.00,Weather View 32 v70,2013-05-18 13:19:00,
2013-05-18 09:29:00,55.0,45.8,30.31,South,180,4.0,5.0,71,0.00,,,0.00,Weather View 32 v70,2013-05-18 13:29:00,
2013-05-18 09:34:00,56.0,48.2,30.31,SE,135,2.0,5.0,75,0.00,,,0.00,Weather View 32 v70,2013-05-18 13:34:00,
2013-05-18 09:44:00,57.0,48.4,30.31,SE,135,1.0,5.0,73,0.00,,,0.00,Weather View 32 v70,2013-05-18 13:44:00,
2013-05-18 09:49:00,57.0,47.7,30.31,SE,135,2.0,5.0,71,0.00,,,0.00,Weather View 32 v70,2013-05-18 13:49:00,
2013-05-18 09:59:00,58.0,47.5,30.31,SSE,158,2.0,5.0,68,0.00,,,0.00,Weather View 32 v70,2013-05-18 13:59:00,
2013-05-18 10:09:00,58.0,46.7,30.31,SSE,158,3.0,5.0,66,0.00,,,0.00,Weather View 32 v70,2013-05-18 14:09:00,
2013-05-18 10:14:00,59.0,46.8,30.30,SSE,158,4.0,5.0,64,0.00,,,0.00,Weather View 32 v70,2013-05-18 14:14:00,
2013-05-18 10:19:00,59.0,46.8,30.31,South,180,3.0,5.0,64,0.00,,,0.00,Weather View 32 v70,2013-05-18 14:19:00,
2013-05-18 10:29:00,60.0,47.8,30.30,SSE,158,3.0,5.0,64,0.00,,,0.00,Weather View 32 v70,2013-05-18 14:29:00,
2013-05-18 10:35:00,60.0,48.6,30.30,South,180,5.0,6.0,66,0.00,,,0.00,Weather View 32 v70,2013-05-18 14:35:00,
2013-05-18 10:44:00,60.0,49.0,30.30,SSE,158,6.0,6.0,67,0.00,,,0.00,Weather View 32 v70,2013-05-18 14:44:00,
2013-05-18 10:54:00,60.0,49.8,30.30,South,180,2.0,6.0,69,0.00,,,0.00,Weather View 32 v70,2013-05-18 14:54:00,
2013-05-18 11:05:00,60.0,49.8,30.30,SSE,158,1.0,6.0,69,0.00,,,0.00,Weather View 32 v70,2013-05-18 15:05:00,
2013-05-18 11:14:00,60.0,49.0,30.30,South,180,2.0,6.0,67,0.00,,,0.00,Weather View 32 v70,2013-05-18 15:14:00,
2013-05-18 11:19:00,61.0,48.7,30.30,SE,135,1.0,6.0,64,0.00,,,0.00,Weather View 32 v70,2013-05-18 15:19:00,
2013-05-18 11:29:00,62.0,47.9,30.30,SSE,158,1.0,6.0,60,0.00,,,0.00,Weather View 32 v70,2013-05-18 15:29:00,
2013-05-18 11:35:00,62.0,46.6,30.30,SE,135,1.0,6.0,57,0.00,,,0.00,Weather View 32 v70,2013-05-18 15:35:00,
2013-05-18 11:44:00,63.0,45.6,30.29,South,180,1.0,6.0,53,0.00,,,0.00,Weather View 32 v70,2013-05-18 15:44:00,
2013-05-18 11:50:00,64.0,46.5,30.29,SE,135,1.0,6.0,53,0.00,,,0.00,Weather View 32 v70,2013-05-18 15:50:00,
2013-05-18 11:54:00,65.0,46.9,30.29,South,180,2.0,6.0,52,0.00,,,0.00,Weather View 32 v70,2013-05-18 15:54:00,
2013-05-18 12:04:00,65.0,46.9,30.29,South,180,1.0,6.0,52,0.00,,,0.00,Weather View 32 v70,2013-05-18 16:04:00,
2013-05-18 12:15:00,65.0,45.9,30.28,SSE,158,1.0,6.0,50,0.00,,,0.00,Weather View 32 v70,2013-05-18 16:15:00,
2013-05-18 12:24:00,65.0,44.2,30.28,SE,135,3.0,8.0,47,0.00,,,0.00,Weather View 32 v70,2013-05-18 16:24:00,
2013-05-18 12:29:00,65.0,44.2,30.28,SE,135,1.0,8.0,47,0.00,,,0.00,Weather View 32 v70,2013-05-18 16:29:00,
2013-05-18 12:34:00,65.0,45.9,30.28,SE,135,2.0,8.0,50,0.00,,,0.00,Weather View 32 v70,2013-05-18 16:34:00,
2013-05-18 12:40:00,66.0,42.8,30.27,SW,225,1.0,8.0,43,0.00,,,0.00,Weather View 32 v70,2013-05-18 16:40:00,
2013-05-18 12:49:00,66.0,42.2,30.27,SE,135,1.0,8.0,42,0.00,,,0.00,Weather View 32 v70,2013-05-18 16:49:00,
2013-05-18 12:54:00,68.0,44.6,30.27,SW,225,1.0,8.0,43,0.00,,,0.00,Weather View 32 v70,2013-05-18 16:54:00,
2013-05-18 13:00:00,69.0,47.3,30.27,SSE,158,2.0,8.0,46,0.00,,,0.00,Weather View 32 v70,2013-05-18 17:00:00,
2013-05-18 13:09:00,68.0,42.7,30.27,SSE,158,3.0,8.0,40,0.00,,,0.00,Weather View 32 v70,2013-05-18 17:09:00,
2013-05-18 13:20:00,65.0,41.9,30.27,South,180,2.0,8.0,43,0.00,,,0.00,Weather View 32 v70,2013-05-18 17:20:00,
2013-05-18 13:24:00,65.0,44.2,30.27,SE,135,1.0,8.0,47,0.00,,,0.00,Weather View 32 v70,2013-05-18 17:24:00,
2013-05-18 13:34:00,65.0,43.1,30.27,South,180,1.0,5.0,45,0.00,,,0.00,Weather View 32 v70,2013-05-18 17:34:00,
2013-05-18 13:44:00,64.0,46.5,30.27,South,180,3.0,5.0,53,0.00,,,0.00,Weather View 32 v70,2013-05-18 17:44:00,
2013-05-18 13:49:00,64.0,44.9,30.26,SSE,158,1.0,4.0,50,0.00,,,0.00,Weather View 32 v70,2013-05-18 17:49:00,
2013-05-18 13:54:00,64.0,44.4,30.26,SE,135,0.0,4.0,49,0.00,,,0.00,Weather View 32 v70,2013-05-18 17:54:00,
2013-05-18 14:05:00,65.0,44.8,30.26,South,180,1.0,4.0,48,0.00,,,0.00,Weather View 32 v70,2013-05-18 18:05:00,
2013-05-18 14:14:00,66.0,47.3,30.26,South,180,2.0,4.0,51,0.00,,,0.00,Weather View 32 v70,2013-05-18 18:14:00,
2013-05-18 14:19:00,66.0,44.0,30.26,SSE,158,1.0,3.0,45,0.00,,,0.00,Weather View 32 v70,2013-05-18 18:19:00,
2013-05-18 14:30:00,66.0,47.3,30.26,South,180,8.0,10.0,51,0.00,,,0.00,Weather View 32 v70,2013-05-18 18:30:00,
2013-05-18 14:39:00,65.0,49.4,30.26,SSE,158,7.0,10.0,57,0.00,,,0.00,Weather View 32 v70,2013-05-18 18:39:00,
2013-05-18 14:44:00,65.0,50.7,30.26,SSE,158,5.0,11.0,60,0.00,,,0.00,Weather View 32 v70,2013-05-18 18:44:00,
2013-05-18 14:50:00,65.0,50.3,30.26,South,180,5.0,11.0,59,0.00,,,0.00,Weather View 32 v70,2013-05-18 18:50:00,
2013-05-18 14:59:00,64.0,49.8,30.26,South,180,2.0,11.0,60,0.00,,,0.00,Weather View 32 v70,2013-05-18 18:59:00,
2013-05-18 15:09:00,63.0,49.7,30.26,SSE,158,6.0,11.0,62,0.00,,,0.00,Weather View 32 v70,2013-05-18 19:09:00,
2013-05-18 15:14:00,64.0,50.7,30.26,SE,135,4.0,11.0,62,0.00,,,0.00,Weather View 32 v70,2013-05-18 19:14:00,
2013-05-18 15:24:00,65.0,49.8,30.26,South,180,6.0,11.0,58,0.00,,,0.00,Weather View 32 v70,2013-05-18 19:24:00,
2013-05-18 15:29:00,66.0,50.8,30.25,South,180,1.0,11.0,58,0.00,,,0.00,Weather View 32 v70,2013-05-18 19:29:00,
2013-05-18 15:35:00,66.0,51.7,30.25,SSE,158,6.0,11.0,60,0.00,,,0.00,Weather View 32 v70,2013-05-18 19:35:00,
2013-05-18 15:44:00,65.0,50.7,30.25,South,180,4.0,11.0,60,0.00,,,0.00,Weather View 32 v70,2013-05-18 19:44:00,
2013-05-18 15:51:00,65.0,50.3,30.25,South,180,8.0,11.0,59,0.00,,,0.00,Weather View 32 v70,2013-05-18 19:51:00,
2013-05-18 15:59:00,65.0,49.8,30.25,South,180,9.0,12.0,58,0.00,,,0.00,Weather View 32 v70,2013-05-18 19:59:00,
2013-05-18 16:04:00,66.0,50.3,30.25,SW,225,2.0,12.0,57,0.00,,,0.00,Weather View 32 v70,2013-05-18 20:04:00,
2013-05-18 16:14:00,67.0,50.3,30.26,SSE,158,8.0,12.0,55,0.00,,,0.00,Weather View 32 v70,2013-05-18 20:14:00,
2013-05-18 16:20:00,67.0,50.7,30.25,SE,135,5.0,12.0,56,0.00,,,0.00,Weather View 32 v70,2013-05-18 20:20:00,
2013-05-18 16:24:00,67.0,50.7,30.25,South,180,4.0,12.0,56,0.00,,,0.00,Weather View 32 v70,2013-05-18 20:24:00,
2013-05-18 16:34:00,67.0,49.8,30.26,SSE,158,3.0,12.0,54,0.00,,,0.00,Weather View 32 v70,2013-05-18 20:34:00,
2013-05-18 16:44:00,65.0,48.4,30.25,South,180,9.0,12.0,55,0.00,,,0.00,Weather View 32 v70,2013-05-18 20:44:00,
2013-05-18 16:50:00,65.0,49.8,30.26,SSW,202,6.0,12.0,58,0.00,,,0.00,Weather View 32 v70,2013-05-18 20:50:00,
2013-05-18 16:59:00,65.0,49.8,30.26,South,180,5.0,12.0,58,0.00,,,0.00,Weather View 32 v70,2013-05-18 20:59:00,
2013-05-18 17:04:00,65.0,48.9,30.25,SSW,202,5.0,13.0,56,0.00,,,0.00,Weather View 32 v70,2013-05-18 21:04:00,
2013-05-18 17:09:00,66.0,50.8,30.25,SSE,158,2.0,13.0,58,0.00,,,0.00,Weather View 32 v70,2013-05-18 21:09:00,
2013-05-18 17:19:00,66.0,50.3,30.26,South,180,6.0,13.0,57,0.00,,,0.00,Weather View 32 v70,2013-05-18 21:19:00,
2013-05-18 17:25:00,66.0,49.8,30.25,SSE,158,9.0,13.0,56,0.00,,,0.00,Weather View 32 v70,2013-05-18 21:25:00,
2013-05-18 17:34:00,65.0,49.4,30.26,SSE,158,3.0,13.0,57,0.00,,,0.00,Weather View 32 v70,2013-05-18 21:34:00,
2013-05-18 17:44:00,66.0,50.8,30.26,SSW,202,2.0,13.0,58,0.00,,,0.00,Weather View 32 v70,2013-05-18 21:44:00,
2013-05-18 17:52:00,66.0,49.8,30.26,South,180,2.0,13.0,56,0.00,,,0.00,Weather View 32 v70,2013-05-18 21:52:00,
2013-05-18 17:59:00,66.0,49.8,30.26,SW,225,2.0,13.0,56,0.00,,,0.00,Weather View 32 v70,2013-05-18 21:59:00,
2013-05-18 18:10:00,65.0,47.9,30.26,South,180,6.0,12.0,54,0.00,,,0.00,Weather View 32 v70,2013-05-18 22:10:00,
2013-05-18 18:19:00,65.0,48.9,30.27,SSE,158,1.0,12.0,56,0.00,,,0.00,Weather View 32 v70,2013-05-18 22:19:00,
2013-05-18 18:24:00,64.0,48.4,30.27,South,180,8.0,11.0,57,0.00,,,0.00,Weather View 32 v70,2013-05-18 22:24:00,
2013-05-18 18:35:00,63.0,48.9,30.28,South,180,1.0,11.0,60,0.00,,,0.00,Weather View 32 v70,2013-05-18 22:35:00,
2013-05-18 18:39:00,62.0,48.4,30.28,SW,225,1.0,11.0,61,0.00,,,0.00,Weather View 32 v70,2013-05-18 22:39:00,
2013-05-18 18:49:00,60.0,48.6,30.28,SE,135,1.0,11.0,66,0.00,,,0.00,Weather View 32 v70,2013-05-18 22:49:00,
2013-05-18 18:54:00,59.0,48.0,30.28,South,180,8.0,11.0,67,0.00,,,0.00,Weather View 32 v70,2013-05-18 22:54:00,
2013-05-18 18:59:00,59.0,48.4,30.28,SW,225,1.0,11.0,68,0.00,,,0.00,Weather View 32 v70,2013-05-18 22:59:00,
2013-05-18 19:09:00,58.0,47.1,30.28,SE,135,5.0,13.0,67,0.00,,,0.00,Weather View 32 v70,2013-05-18 23:09:00,
2013-05-18 19:14:00,58.0,46.7,30.28,SSW,202,6.0,13.0,66,0.00,,,0.00,Weather View 32 v70,2013-05-18 23:14:00,
2013-05-18 19:19:00,57.0,46.1,30.28,WNW,292,1.0,13.0,67,0.00,,,0.00,Weather View 32 v70,2013-05-18 23:19:00,
2013-05-18 19:29:00,57.0,46.1,30.29,South,180,3.0,13.0,67,0.00,,,0.00,Weather View 32 v70,2013-05-18 23:29:00,
2013-05-18 19:39:00,56.0,45.2,30.30,SSE,158,5.0,13.0,67,0.00,,,0.00,Weather View 32 v70,2013-05-18 23:39:00,
2013-05-18 19:45:00,56.0,45.2,30.30,SW,225,1.0,13.0,67,0.00,,,0.00,Weather View 32 v70,2013-05-18 23:45:00,
2013-05-18 19:53:00,56.0,45.6,30.29,SSW,202,3.0,13.0,68,0.00,,,0.00,Weather View 32 v70,2013-05-18 23:53:00,
2013-05-18 20:00:00,55.0,45.8,30.30,SE,135,2.0,13.0,71,0.00,,,0.00,Weather View 32 v70,2013-05-19 00:00:00,
2013-05-18 20:09:00,55.0,46.5,30.30,SE,135,3.0,13.0,73,0.00,,,0.00,Weather View 32 v70,2013-05-19 00:09:00,
2013-05-18 20:19:00,54.0,46.2,30.30,South,180,3.0,13.0,75,0.00,,,0.00,Weather View 32 v70,2013-05-19 00:19:00,
2013-05-18 20:24:00,54.0,47.3,30.30,West,270,0.0,12.0,78,0.00,,,0.00,Weather View 32 v70,2013-05-19 00:24:00,
2013-05-18 20:34:00,53.0,47.0,30.30,South,180,2.0,10.0,80,0.00,,,0.00,Weather View 32 v70,2013-05-19 00:34:00,
2013-05-18 20:39:00,53.0,47.3,30.30,SW,225,4.0,10.0,81,0.00,,,0.00,Weather View 32 v70,2013-05-19 00:39:00,
2013-05-18 20:44:00,53.0,47.6,30.30,SW,225,3.0,10.0,82,0.00,,,0.00,Weather View 32 v70,2013-05-19 00:44:00,
2013-05-18 20:54:00,53.0,48.0,30.31,SSE,158,1.0,10.0,83,0.00,,,0.00,Weather View 32 v70,2013-05-19 00:54:00,
2013-05-18 20:59:00,52.0,47.3,30.31,SW,225,1.0,10.0,84,0.00,,,0.00,Weather View 32 v70,2013-05-19 00:59:00,
2013-05-18 21:04:00,52.0,47.3,30.31,SW,225,1.0,10.0,84,0.00,,,0.00,Weather View 32 v70,2013-05-19 01:04:00,
2013-05-18 21:14:00,51.0,47.0,30.31,SW,225,0.0,10.0,86,0.00,,,0.00,Weather View 32 v70,2013-05-19 01:14:00,
2013-05-18 21:25:00,51.0,47.3,30.32,SW,225,0.0,6.0,87,0.00,,,0.00,Weather View 32 v70,2013-05-19 01:25:00,
2013-05-18 21:34:00,50.0,46.6,30.32,SW,225,0.0,6.0,88,0.00,,,0.00,Weather View 32 v70,2013-05-19 01:34:00,
2013-05-18 21:39:00,50.0,46.6,30.32,SE,135,0.0,6.0,88,0.00,,,0.00,Weather View 32 v70,2013-05-19 01:39:00,
2013-05-18 21:49:00,50.0,46.9,30.32,SE,135,0.0,5.0,89,0.00,,,0.00,Weather View 32 v70,2013-05-19 01:49:00,
2013-05-18 21:54:00,49.0,46.2,30.33,SE,135,0.0,5.0,90,0.00,,,0.00,Weather View 32 v70,2013-05-19 01:54:00,
2013-05-18 22:05:00,49.0,46.8,30.32,West,270,0.0,4.0,92,0.00,,,0.00,Weather View 32 v70,2013-05-19 02:05:00,
2013-05-18 22:14:00,48.0,46.1,30.32,WNW,292,0.0,3.0,93,0.00,,,0.00,Weather View 32 v70,2013-05-19 02:14:00,
2013-05-18 22:19:00,48.0,46.4,30.32,SSE,158,0.0,2.0,94,0.00,,,0.00,Weather View 32 v70,2013-05-19 02:19:00,
2013-05-18 22:29:00,48.0,46.9,30.32,South,180,1.0,3.0,96,0.00,,,0.00,Weather View 32 v70,2013-05-19 02:29:00,
2013-05-18 22:35:00,48.0,46.9,30.33,South,180,0.0,3.0,96,0.00,,,0.00,Weather View 32 v70,2013-05-19 02:35:00,
2013-05-18 22:44:00,48.0,47.2,30.33,SW,225,0.0,3.0,97,0.00,,,0.00,Weather View 32 v70,2013-05-19 02:44:00,
2013-05-18 22:49:00,48.0,47.5,30.33,SSE,158,1.0,3.0,98,0.00,,,0.00,Weather View 32 v70,2013-05-19 02:49:00,
2013-05-18 22:55:00,48.0,47.5,30.33,SSW,202,1.0,3.0,98,0.00,,,0.00,Weather View 32 v70,2013-05-19 02:55:00,
2013-05-18 23:05:00,48.0,47.2,30.33,SSW,202,1.0,3.0,97,0.00,,,0.00,Weather View 32 v70,2013-05-19 03:05:00,
2013-05-18 23:14:00,49.0,47.9,30.33,SSE,158,1.0,3.0,96,0.00,,,0.00,Weather View 32 v70,2013-05-19 03:14:00,
2013-05-18 23:19:00,49.0,47.9,30.33,SSE,158,0.0,3.0,96,0.00,,,0.00,Weather View 32 v70,2013-05-19 03:19:00,
2013-05-18 23:29:00,49.0,47.9,30.33,SSE,158,0.0,3.0,96,0.00,,,0.00,Weather View 32 v70,2013-05-19 03:29:00,
2013-05-18 23:34:00,49.0,47.9,30.33,SE,135,0.0,3.0,96,0.00,,,0.00,Weather View 32 v70,2013-05-19 03:34:00,
2013-05-18 23:41:00,49.0,47.9,30.33,SE,135,0.0,3.0,96,0.00,,,0.00,Weather View 32 v70,2013-05-19 03:41:00,
2013-05-18 23:50:00,49.0,47.6,30.33,SE,135,1.0,3.0,95,0.00,,,0.00,Weather View 32 v70,2013-05-19 03:50:00,
2013-05-18 23:59:00,49.0,47.3,30.33,WNW,292,0.0,3.0,94,0.00,,,0.00,Weather View 32 v70,2013-05-19 03:59:00,